Location: Banios
(43.0451°N, 0.2335°E)
Time: 13:54:03
(UTC+00:00)

A-11 Canister half - Pass Details

Date: 14 May 2021
Orbit: 1513 x 1686 km, 47.2° (Epoch: 14 June)

Event Time Altitude Azimuth Distance (km) Brightness Sun altitude
Rises 21:17:35 0° 295° (WNW) 4,675 12.7 -18.3°
Reaches altitude 10° 21:20:51 10° 288° (WNW) 3,704 11.8 -18.6°
Maximum altitude 21:29:11 38° 224° (SW) 2,224 9.7 -19.6°
Enters shadow 21:34:17 23° 175° (S) 2,901 9.9 -20.1°
Drops below altitude 10° 21:37:44 10° 161° (SSE) 3,800 - -20.5°
Sets 21:41:09 0° 154° (SSE) 4,809 - -20.8°
